Location: Natural Bridges National Monument
(37.6093°N, 109.9767°W)
Time: 18:25:47
(UTC-06:00)

Cosmos 1727 Rocket - Visible Passes

Search period start: 23 September 2014 00:00
Search period end: 03 October 2014 00:00
Orbit: 961 x 997 km, 82.9° (Epoch: 22 September)

Date Brightness Start Highest point End Pass type
(mag) Time Alt. Az. Time Alt. Az. Time Alt. Az.
23 Sep 6.4 03:11:04 10° NE 03:14:32 15° ENE 03:17:59 10° ESE visible
23 Sep 3.8 04:54:26 10° N 05:00:37 72° W 05:02:55 40° SSW visible
24 Sep 5.6 03:36:04 10° NNE 03:41:23 29° ENE 03:42:28 27° E visible
24 Sep 4.4 05:21:13 10° NNW 05:26:50 37° W 05:27:04 37° W visible
25 Sep 4.6 04:01:55 10° N 04:07:11 51° NE 04:07:11 51° NE visible
25 Sep 5.3 05:48:39 10° NW 05:51:49 19° WNW 05:51:49 19° WNW visible
26 Sep 6.5 02:45:19 10° NE 02:47:34 13° ENE 02:47:34 13° ENE visible
26 Sep 4.7 04:28:13 10° N 04:32:14 43° NNW 04:32:14 43° NNW visible
27 Sep 6.1 03:10:02 10° NNE 03:12:49 21° NE 03:12:49 21° NE visible
27 Sep 5.3 04:54:55 10° NNW 04:57:29 24° NW 04:57:29 24° NW visible
28 Sep 5.8 03:35:47 10° N 03:38:12 24° NNE 03:38:12 24° NNE visible
28 Sep 5.9 05:22:13 10° NW 05:22:53 12° NW 05:22:53 12° NW visible
29 Sep 5.9 04:02:00 10° N 04:03:42 20° N 04:03:42 20° N visible
30 Sep 6.6 02:44:01 10° NNE 02:44:36 12° NNE 02:44:36 12° NNE visible
30 Sep 6.1 04:28:38 10° NNW 04:29:17 13° NNW 04:29:17 13° NNW visible
01 Oct 6.5 03:09:39 10° N 03:10:16 13° N 03:10:16 13° N visible
02 Oct 6.5 03:35:49 10° N 03:35:58 11° N 03:35:58 11° N visible
